Weather History for Charlotte, NC

Change the Weather History Date:

Monday, September 9, 2013

  Actual Average Record
Temperature  
Mean Temperature 77 °F 73 °F  
Max Temperature 89 °F 83 °F 101 °F (1939)
Min Temperature 65 °F 63 °F 46 °F (1998)
Degree Days  
Heating Degree Days 0 0  
Month to date heating degree days 0 0  
Since 1 July heating degree days 1 0  
Cooling Degree Days 12 8  
Month to date cooling degree days 108 84  
Year to date cooling degree days 1396 1361  
Growing Degree Days 26 (Base 50)    
Moisture  
Dew Point 64 °F    
Average Humidity 69    
Maximum Humidity 97    
Minimum Humidity 41    
Precipitation  
Precipitation 0.00 in 0.11 in 1.92 in (1988)
Month to date precipitation 0.15 1.00  
Year to date precipitation 35.47 29.60  
Snow  
Snow 0.00 in 0.00 in 0.00 in ()
Month to date snowfall 0.0 0.0  
Since 1 July snowfall 0.0 0.0  
Since 1 September snowfall 0.0 0.0  
Snow Depth 0.00 in    
Sea Level Pressure  
Sea Level Pressure 30.08 in    
Wind  
Wind Speed 5 mph (ESE)    
Max Wind Speed 13 mph    
Max Gust Speed 18 mph    
Visibility 9 miles    
Events      
T = Trace of Precipitation, MM = Missing Value Source: NWS Daily Summary

Daily Weather History Graph

Daily Weather History Graph

Search for Another Location

Airport:

Trip Planner

Search our weather history database for the weather conditions in past years. The results will help you decide how hot, cold, wet, or windy it might be!

Date:

Astronomy

Sep. 09, 2013 Rise Set
Actual Time 7:02 AM EDT 7:39 PM EDT
Civil Twilight 6:36 AM EDT 8:04 PM EDT
Nautical Twilight 6:06 AM EDT 8:34 PM EDT
Astronomical Twilight 5:35 AM EDT 9:05 PM EDT
Moon 11:11 AM EDT (9/9) 10:06 PM EDT (9/9)
Length of Visible Light 13h 27m
Length of Day
12h 36m
Waxing Crescent, 19% of the Moon is Illuminated
Sep 9
Waxing Crescent
Sep 12
First Quarter
Sep 19
Full
Sep 26
Last Quarter
Oct 4
New

Hourly Weather History & Observations

Time (EDT) Temp. Heat Index Dew Point Humidity Pressure Visibility Wind Dir Wind Speed Gust Speed Precip Events Conditions
12:52 AM 70.0 °F - 66.9 °F 90% 30.00 in 10.0 mi Calm Calm - N/A   Scattered Clouds
1:52 AM 66.0 °F - 64.9 °F 96% 30.01 in 7.0 mi NNW 3.5 mph - N/A   Scattered Clouds
2:52 AM 69.1 °F - 68.0 °F 96% 30.01 in 7.0 mi NNW 3.5 mph - N/A   Mostly Cloudy
3:52 AM 69.1 °F - 66.9 °F 93% 30.02 in 7.0 mi Calm Calm - N/A   Mostly Cloudy
4:52 AM 68.0 °F - 66.0 °F 93% 30.03 in 7.0 mi Calm Calm - N/A   Mostly Cloudy
5:52 AM 68.0 °F - 66.9 °F 96% 30.04 in 7.0 mi Calm Calm - N/A   Scattered Clouds
6:52 AM 66.0 °F - 64.9 °F 96% 30.05 in 6.0 mi NW 4.6 mph - N/A   Partly Cloudy
7:52 AM 70.0 °F - 66.9 °F 90% 30.07 in 6.0 mi Calm Calm - N/A   Partly Cloudy
8:52 AM 75.0 °F - 68.0 °F 79% 30.09 in 9.0 mi Calm Calm - N/A   Partly Cloudy
9:52 AM 82.0 °F 84.1 °F 66.0 °F 58% 30.10 in 10.0 mi North 4.6 mph - N/A   Scattered Clouds
10:52 AM 84.0 °F 85.8 °F 64.9 °F 53% 30.11 in 10.0 mi East 6.9 mph - N/A   Partly Cloudy
11:52 AM 87.1 °F 88.3 °F 64.0 °F 46% 30.12 in 10.0 mi East 6.9 mph - N/A   Scattered Clouds
12:52 PM 86.0 °F 86.8 °F 63.0 °F 46% 30.11 in 10.0 mi ESE 8.1 mph - N/A   Scattered Clouds
1:52 PM 87.1 °F 87.5 °F 62.1 °F 43% 30.11 in 10.0 mi SE 6.9 mph 18.4 mph N/A   Scattered Clouds
2:52 PM 89.1 °F 89.3 °F 62.1 °F 40% 30.10 in 10.0 mi ESE 10.4 mph - N/A   Scattered Clouds
3:52 PM 89.1 °F 89.3 °F 62.1 °F 40% 30.09 in 10.0 mi East 8.1 mph - N/A   Scattered Clouds
4:52 PM 86.0 °F 86.3 °F 62.1 °F 44% 30.09 in 10.0 mi East 6.9 mph - N/A   Scattered Clouds
5:52 PM 87.1 °F 87.5 °F 62.1 °F 43% 30.08 in 10.0 mi SE 6.9 mph - N/A   Scattered Clouds
6:52 PM 86.0 °F 86.3 °F 62.1 °F 44% 30.09 in 10.0 mi SE 8.1 mph - N/A   Scattered Clouds
7:52 PM 82.9 °F 84.0 °F 63.0 °F 51% 30.09 in 10.0 mi SE 6.9 mph - N/A   Partly Cloudy
8:52 PM 82.9 °F 84.0 °F 63.0 °F 51% 30.10 in 10.0 mi ESE 6.9 mph - N/A   Clear
9:52 PM 80.1 °F 81.7 °F 64.0 °F 58% 30.11 in 10.0 mi East 4.6 mph - N/A   Clear
10:52 PM 78.1 °F - 64.0 °F 62% 30.13 in 10.0 mi East 3.5 mph - N/A   Clear
11:52 PM 75.9 °F - 64.9 °F 69% 30.14 in 10.0 mi SSE 6.9 mph - N/A   Clear